This demonstration page uses our WeatherBlox Daily Observations layout. Learn more.

Left ArrowRight Arrow

38.88101, -77.10428

Hourly Observations for July 18, 2020

Temp ( °F °C ) Dew Point ( °F °C ) Humidity (%) Winds ( mph kmh ) Pressure ( in mb ) Visibility ( mi km ) Precip ( " mm )
12:52 am 00:52 Mostly Cloudy 83 28.3 76 24.4 79 79 S 3 6 30.06 1018 10 16.0934 0 0
1:52 am 01:52 Cloudy 83 28.3 75 23.9 77 77 W 3 6 30.07 1018 10 16.0934 0 0
2:52 am 02:52 Mostly Cloudy 83 28.3 75 23.9 77 77 Calm 30.06 1018 10 16.0934 0 0
3:52 am 03:52 Mostly Cloudy 83 28.3 73 22.8 72 72 N 6 9 30.06 1018 10 16.0934 0 0
4:52 am 04:52 Partly Cloudy 81 27.2 64 17.8 57 57 N 5 7 30.06 1018 10 16.0934 0 0
5:52 am 05:52 Partly Cloudy 80 26.7 66 18.9 62 62 NE 5 7 30.07 1018 10 16.0934 0 0
6:52 am 06:52 Mostly Sunny 80 26.7 65 18.3 60 60 NE 5 7 30.08 1019 10 16.0934 0 0
7:52 am 07:52 Partly Cloudy 83 28.3 65 18.3 55 55 N 6 9 30.1 1019 10 16.0934 0 0
8:52 am 08:52 Partly Cloudy 86 30 65 18.3 49 49 NE 3 6 30.1 1019 10 16.0934 0 0
9:52 am 09:52 Mostly Sunny 89 31.7 65 18.3 45 45 NE 6 9 30.11 1020 10 16.0934 0 0
10:52 am 10:52 Mostly Sunny 91 32.8 63 17.2 39 39 VRB 3 6 30.11 1020 10 16.0934 0 0
11:52 am 11:52 Partly Cloudy 91 32.8 62 16.7 38 38 ESE 6 9 30.09 1019 10 16.0934 0 0
12:52 pm 12:52 Partly Cloudy 94 34.4 63 17.2 36 36 NE 8 13 30.07 1018 10 16.0934 0 0
1:52 pm 13:52 Partly Cloudy 95 35 62 16.7 34 34 NE 7 11 30.05 1018 10 16.0934 0 0
2:52 pm 14:52 Mostly Sunny 96 35.6 62 16.7 32 32 NE 6 9 30.04 1017 10 16.0934 0 0
3:52 pm 15:52 Mostly Sunny 97 36.1 62 16.7 32 32 NE 7 11 30.02 1017 10 16.0934 0 0
4:52 pm 16:52 Mostly Sunny 97 36.1 60 15.6 29 29 NNE 8 13 30.01 1016 10 16.0934 0 0
5:52 pm 17:52 Mostly Sunny 97 36.1 59 15 28 28 NNE 7 11 29.99 1016 10 16.0934 0 0
6:52 pm 18:52 Partly Cloudy 97 36.1 57 13.9 26 26 Calm 29.98 1015 10 16.0934 0 0
7:15 pm 19:15 Partly Cloudy 92 33.3 70 21.1 49 49 E 10 17 29.99 1015 10 16.0934 0 0
7:52 pm 19:52 Partly Cloudy 90 32.2 71 21.7 54 54 ESE 9 15 30 1016 10 16.0934 0 0
8:52 pm 20:52 Mostly Clear 87 30.6 71 21.7 59 59 ESE 9 15 30.01 1016 10 16.0934 0 0
9:52 pm 21:52 Clear 86 30 70 21.1 59 59 SSE 6 9 30.02 1017 10 16.0934 0 0
10:52 pm 22:52 Mostly Clear 85 29.4 69 20.6 59 59 SSE 5 7 30.03 1017 10 16.0934 0 0
11:52 pm 23:52 Mostly Clear 83 28.3 71 21.7 67 67 SSW 7 11 30.02 1017 10 16.0934 0 0

Powered by AerisWeather